CAPE
5 184 94 46 95 568 931 945 674 422 478 707 784 755 540 332 202 130 95 63 31 72
0 0 0 0 1 21 134 298 547 440 484 493 375 446 442 348 199 117 90 68 61 29
0 0 0 0 0 0 0 0 1 95 249 284 351 360 255 223 235 185 116 73 87 46
0 0 0 0 0 0 0 0 0 0 16 159 248 296 224 375 276 219 209 111 99 63
0 0 0 0 0 0 0 0 0 0 1 7 163 218 237 307 247 201 246 157 84 74
0 0 0 0 0 0 0 0 0 0 0 0 0 68 242 204 159 227 264 194 138 104
0 0 0 0 0 0 0 0 0 0 0 0 0 0 23 160 217 231 210 190 111 103
0 0 0 0 0 0 1 1 0 1 1 0 1 0 0 2 79 102 125 193 119 55
0 0 0 0 0 0 1 2 2 2 2 1 2 2 2 6 1 30 47 83 87 38
0 0 0 0 0 1 3 2 3 3 2 4 4 1 1 1 3 0 5 25 3 3
0 0 0 0 1 2 2 3 3 4 5 4 2 1 1 1 3 2 1 0 0 0
0 0 0 0 1 2 3 3 4 4 4 4 3 1 0 2 1 3 0 0 0 0
0 0 0 0 0 1 0 3 1 4 3 2 2 2 0 2 6 2 1 0 0 0
0 0 0 0 0 0 1 2 3 4 3 3 2 1 0 0 4 3 2 3 0 0
CIN
-34 -369 -341 -215 -46 -42 -29 -31 -57 -119 -80 -35 -28 -14 -14 -12 -28 -30 -38 -42 -85 -81
-0 -0 -0 -0 -248 -250 -196 -109 -32 -66 -40 -31 -46 -38 -23 -12 -33 -26 -31 -45 -58 -97
-0 -0 -0 -0 -0 -0 -0 -0 -0 -170 -68 -36 -19 -32 -29 -30 -32 -22 -38 -43 -40 -83
-0 -0 -0 -0 -0 -0 -0 -0 -0 -0 -334 -104 -27 -18 -22 -8 -22 -22 -18 -33 -30 -88
-0 -0 -0 -0 -0 -0 -0 -0 -0 -0 -0 -284 -89 -29 -7 -5 -12 -19 -4 -16 -37 -74
-0 -0 -0 -0 -0 -0 -0 -0 -0 -0 -0 -0 -19 -177 -24 -9 -17 -7 -1 -12 -17 -52
-0 -0 -0 -0 -0 -0 -0 -0 -0 -0 -0 -0 -0 -0 -162 -33 -1 -0 -10 -6 -11 -43
-0 -0 -0 -0 -0 -0 -0 -0 -0 -0 -0 -0 -0 -0 -0 -60 -48 -17 -1 -11 -9 -31
-0 -0 -0 -0 -0 -0 -0 -0 -0 -0 -0 -0 -0 -0 -0 -0 -0 -93 -21 -5 -18 -37
-0 -0 -0 -0 -0 -0 -0 -0 -0 -0 -0 -0 -0 -0 -0 -0 -0 -0 -65 -88 -90 -21
-0 -0 -0 -0 -0 -0 -0 -0 -0 -0 -0 -0 -0 -0 -0 -0 -0 -0 -0 -0 -24 -0
-0 -0 -0 -0 -0 -0 -0 -0 -0 -0 -0 -0 -0 -0 -0 -0 -0 -0 -0 -0 -0 -0
-0 -1 -0 -0 -0 -0 -0 -0 -0 -0 -0 -0 -0 -0 -0 -0 -0 -0 -0 -0 -0 -0
-0 -0 -0 -0 -0 -0 -0 -0 -0 -0 -0 -0 -0 -0 -0 -0 -0 -0 -0 -0 -0 -0
Wind_Speed
11 10 14 17 20 25 24 23 19 21 25 25 27 28 26 27 27 26 25 23 22 21
10 8 11 12 13 19 22 25 24 24 24 25 26 29 30 29 28 26 26 26 25 23
14 15 17 19 20 23 26 27 28 28 28 27 29 27 30 32 28 27 25 26 27 27
17 18 19 22 22 24 25 26 26 28 28 28 30 29 30 32 31 30 29 26 28 27
19 20 19 21 21 24 24 25 26 28 29 30 32 32 33 32 30 33 32 30 29 29
20 20 22 22 23 25 26 28 28 30 31 33 33 34 34 34 32 31 32 31 31 29
22 22 24 24 25 26 27 28 30 32 33 34 35 35 36 35 34 33 31 31 31 29
22 23 25 25 26 27 28 29 31 32 32 32 32 32 35 37 37 35 32 32 34 29
23 24 25 27 28 29 30 30 31 31 31 31 31 33 37 38 40 39 32 30 28 30
25 27 28 30 30 31 31 32 32 32 32 32 33 34 36 39 40 41 39 33 34 31
28 30 31 31 32 33 33 34 34 34 35 35 33 35 36 37 39 40 41 39 34 32
31 31 32 33 34 34 35 36 36 36 37 36 36 35 37 36 36 38 41 41 37 33
31 32 33 34 35 35 35 36 37 37 36 37 37 35 37 36 35 38 39 38 38 34
33 34 34 36 36 36 37 37 37 38 37 36 36 36 37 37 36 36 38 37 38 35
Wind_Direction
238 265 278 283 273 272 290 289 288 286 282 277 272 270 268 267 265 262 259 256 253 258
294 295 285 293 293 300 296 292 295 294 289 282 278 271 268 266 264 263 261 259 258 256
300 300 300 300 297 300 296 296 293 294 292 284 280 276 269 265 265 263 262 261 260 261
302 308 307 306 304 296 298 302 299 295 295 290 281 278 272 266 266 264 263 262 262 260
305 306 308 304 306 300 299 304 303 297 293 292 284 279 273 270 267 264 264 263 262 261
305 303 306 307 303 300 301 300 296 294 292 289 288 283 276 273 270 266 264 264 262 259
300 297 300 298 297 296 298 295 297 293 291 292 286 282 277 275 273 270 268 263 262 259
300 298 298 296 287 298 303 302 301 298 296 295 296 285 280 277 273 273 271 262 261 260
303 302 299 300 295 297 304 304 303 302 299 299 297 290 282 279 276 272 273 267 260 263
309 306 301 299 302 302 303 303 300 302 301 294 292 294 290 284 277 272 270 271 267 262
314 310 308 309 306 304 303 299 299 301 299 295 301 291 290 289 281 275 270 268 268 263
310 308 311 310 308 306 304 297 296 296 294 295 294 299 293 294 290 280 274 267 267 265
314 312 309 308 306 305 304 299 297 296 299 297 294 300 294 295 297 285 279 274 266 266
320 316 313 307 305 303 302 299 299 298 300 300 298 300 297 294 295 292 285 278 268 266